Weather History for KPBI - September, 2011

Change the Weather History Date:

Wednesday, September 28, 2011

  Actual Average Record
Temperature  
Mean Temperature 82 °F 81 °F  
Max Temperature 88 °F 87 °F 93 °F (1958)
Min Temperature 75 °F 75 °F 68 °F (1967)
Degree Days  
Heating Degree Days 0 0  
Month to date heating degree days 0 0  
Since 1 July heating degree days 0 0  
Cooling Degree Days 17 16  
Month to date cooling degree days 501 469  
Year to date cooling degree days 3856 3175  
Growing Degree Days 31 (Base 50)    
Moisture  
Dew Point 73 °F    
Average Humidity 78    
Maximum Humidity 94    
Minimum Humidity 61    
Precipitation  
Precipitation 0.00 in 0.25 in 2.45 in (1990)
Month to date precipitation 7.39 7.85  
Year to date precipitation 34.94 48.57  
Snow  
Snow 0.00 in - - ()
Month to date snowfall 0.0  
Since 1 July snowfall 0.0  
Since 1 September snowfall 0.0  
Snow Depth 0.00 in    
Sea Level Pressure  
Sea Level Pressure 29.89 in    
Wind  
Wind Speed 5 mph (East)    
Max Wind Speed 13 mph    
Max Gust Speed 16 mph    
Visibility 10 miles    
Events      
T = Trace of Precipitation, MM = Missing Value Source: NWS Daily Summary

Daily Weather History Graph

Daily Weather History Graph

Search for Another Location

Airport or City:

Trip Planner

Search our weather history database for the weather conditions in past years. The results will help you decide how hot, cold, wet, or windy it might be!

Date:

Astronomy

Sep. 28, 2011 Rise Set
Actual Time 7:11 AM EDT 7:10 PM EDT
Civil Twilight 6:48 AM EDT 7:33 PM EDT
Nautical Twilight 6:21 AM EDT 8:00 PM EDT
Astronomical Twilight 5:54 AM EDT 8:27 PM EDT
Moon 8:24 AM EDT (9/28) 7:56 PM EDT (9/28)
Length of Visible Light 12h 45m
Length of Day
11h 58m
New Moon, 2% of the Moon is Illuminated
Sep 28
New Moon
Oct 3
First Quarter
Oct 11
Full
Oct 19
Last Quarter
Oct 26
New

Hourly Weather History & Observations

Time (EDT) Temp. Heat Index Dew Point Humidity Pressure Visibility Wind Dir Wind Speed Gust Speed Precip Events Conditions
12:53 AM 79.0 °F - 75.0 °F 88% 29.92 in 10.0 mi Calm Calm - N/A   Scattered Clouds
1:53 AM 78.1 °F - 73.0 °F 84% 29.89 in 10.0 mi South 3.5 mph - N/A   Scattered Clouds
2:53 AM 77.0 °F - 72.0 °F 84% 29.88 in 10.0 mi SSW 5.8 mph - N/A   Scattered Clouds
3:53 AM 77.0 °F - 72.0 °F 84% 29.86 in 10.0 mi Calm Calm - N/A   Partly Cloudy
4:53 AM 75.9 °F - 73.0 °F 91% 29.86 in 10.0 mi Calm Calm - N/A   Partly Cloudy
5:53 AM 75.0 °F - 72.0 °F 90% 29.88 in 10.0 mi Calm Calm - N/A   Partly Cloudy
6:53 AM 75.0 °F - 72.0 °F 90% 29.89 in 10.0 mi Calm Calm - N/A   Scattered Clouds
7:53 AM 78.1 °F - 73.9 °F 87% 29.90 in 10.0 mi Calm Calm - N/A   Scattered Clouds
8:53 AM 82.0 °F 88.6 °F 75.0 °F 79% 29.91 in 10.0 mi WNW 3.5 mph - N/A   Scattered Clouds
9:53 AM 84.9 °F 92.1 °F 73.9 °F 69% 29.92 in 10.0 mi Calm Calm - N/A   Scattered Clouds
10:53 AM 86.0 °F 93.0 °F 73.0 °F 65% 29.93 in 10.0 mi Calm Calm - N/A   Mostly Cloudy
11:19 AM 86.0 °F 93.4 °F 73.4 °F 66% 29.92 in 10.0 mi East 8.1 mph - N/A   Mostly Cloudy
11:41 AM 87.8 °F 95.6 °F 73.4 °F 62% 29.92 in 10.0 mi ENE 4.6 mph - N/A   Mostly Cloudy
11:53 AM 87.1 °F 94.5 °F 73.0 °F 63% 29.92 in 10.0 mi East 4.6 mph - N/A   Mostly Cloudy
12:53 PM 87.1 °F 94.5 °F 73.0 °F 63% 29.91 in 10.0 mi East 10.4 mph - N/A   Mostly Cloudy
1:53 PM 86.0 °F 93.0 °F 73.0 °F 65% 29.89 in 10.0 mi East 8.1 mph - N/A   Mostly Cloudy
2:53 PM 87.1 °F 95.4 °F 73.9 °F 65% 29.87 in 10.0 mi East 9.2 mph - N/A   Mostly Cloudy
3:53 PM 86.0 °F 92.2 °F 72.0 °F 63% 29.86 in 10.0 mi ESE 10.4 mph - N/A   Scattered Clouds
4:53 PM 84.9 °F 92.1 °F 73.9 °F 69% 29.87 in 10.0 mi East 6.9 mph - N/A   Mostly Cloudy
5:53 PM 84.9 °F 92.1 °F 73.9 °F 69% 29.86 in 10.0 mi East 8.1 mph - N/A   Mostly Cloudy
6:53 PM 84.0 °F 90.2 °F 73.0 °F 69% 29.85 in 10.0 mi East 6.9 mph - N/A   Scattered Clouds
7:53 PM 82.9 °F 89.4 °F 73.9 °F 74% 29.85 in 10.0 mi East 8.1 mph - N/A   Scattered Clouds
8:53 PM 82.9 °F 88.8 °F 73.0 °F 72% 29.85 in 10.0 mi ESE 9.2 mph - N/A   Scattered Clouds
9:53 PM 82.9 °F 89.4 °F 73.9 °F 74% 29.87 in 10.0 mi East 6.9 mph - N/A   Scattered Clouds
10:53 PM 82.0 °F 87.9 °F 73.9 °F 76% 29.89 in 10.0 mi ESE 9.2 mph - N/A   Scattered Clouds
11:53 PM 82.0 °F 87.4 °F 73.0 °F 74% 29.89 in 10.0 mi ESE 5.8 mph - N/A   Scattered Clouds